Flag for Germany Weather past 2 weeks in Heilbronn, Baden-Württemberg, Germany

Now
60 °F

Overcast.


Feels Like: 60 °F
Forecast: 50 / 67 °F
Wind: 2 mph from Northwest

Location: Oehringen

Current Time: Sep 1, 2014 at 1:24:10 PM

Latest Report: Sep 1, 2014 at 1:00 PM


Visibility: 11 mi

Pressure: 30.14 "Hg

Humidity: 72%

Dew point: 51 °F

Location of HeilbronnLocation

Historic Weather in Heilbronn — Graph

°F

Heilbronn temperature yesterday

Maximum temperature yesterday: 62 °F (at 12:00 AM)
Minimum temperature yesterday: 54 °F (at 9:00 PM)
Average temperature yesterday: 58 °F

Past Weeks' High & Low Weather Summary

 TemperatureHumidityPressure
High75 °F (Aug 28, 5:00 PM)98% (Aug 31, 11:00 AM)30.16 "Hg (Aug 31, 11:00 AM)
Low48 °F (Aug 20, 7:00 AM)34% (Aug 22, 6:00 PM)29.67 "Hg (Aug 26, 8:00 AM)
Average60 °F74%29.98 "Hg
* Reported Aug 17 12:00 Noon — Sep 1 12:00 Noon, Heilbronn, Weather by CustomWeather, © 2014

Note: Actual official high and low records may vary slightly from our data, if they occured in-between our weather recording intervals... More about our weather records

Advertising

Heilbronn weather history for previous 24 hours

 ConditionsComfort  
Time TempWeatherWind HumidityBarometerVisibility
12:00 PM
Sep 1
58 °FOvercast.2 mph78%30.14 "Hg8 mi
11:00 AM55 °FFog.2 mph90%30.14 "Hg4 mi
10:00 AM54 °FFog.1 mph93%30.14 "Hg3 mi
9:00 AM53 °FFog.3 mph96%30.13 "Hg2 mi
8:00 AM52 °FFog.2 mph97%30.11 "Hg2 mi
7:00 AM51 °FFog.1 mph97%30.09 "Hg2 mi
6:00 AM52 °FLow clouds.1 mph97%30.08 "Hg2 mi
5:00 AM53 °FLow clouds.2 mph97%30.07 "Hg1 mi
4:00 AM53 °FFog.2 mph97%30.07 "Hg1 mi
3:00 AM54 °FFog.2 mph96%30.06 "Hg2 mi
2:00 AM54 °FFog.2 mph96%30.05 "Hg2 mi
1:00 AM54 °FFog.1 mph97%30.03 "Hg2 mi
12:00 AM54 °FFog.2 mph97%30.03 "Hg2 mi
11:00 PM
Aug 31
54 °FLow clouds.2 mph97%30.03 "Hg4 mi
10:00 PM55 °FOvercast.2 mph95%30.02 "Hg7 mi
9:00 PM54 °FOvercast.3 mph94%30.01 "Hg12 mi
8:00 PM55 °FOvercast.2 mph92%29.99 "Hg22 mi
7:00 PM54 °FLight rain. Overcast.5 mph94%29.99 "Hg4 mi
6:00 PM58 °FRain. Overcast.7 mph91%29.96 "Hg3 mi
5:00 PM60 °FOvercast.6 mph82%29.95 "Hg28 mi
4:00 PM58 °FOvercast.5 mph89%29.96 "Hg19 mi
3:00 PM58 °FLow clouds.3 mph93%29.97 "Hg16 mi
2:00 PM57 °FLight rain. Low clouds.5 mph94%29.98 "Hg11 mi
1:00 PM58 °FRain. Low clouds.5 mph96%29.98 "Hg2 mi
Weather by CustomWeather, © 2014

See weather overviewHow to use our weather pages